Regional Weather Roundup
Issued by NWS

Home | Current Version | Previous Version | Graphics & Text | Print | Product List | Glossary Off
Versions: 1 2 3 4 5 6 7 8 9 10 11 12 13 14 15 16 17 18 19 20 21 22 23 24 25 26 27

000
ASUS43 KDMX 190407
RWRIA

WEATHER ROUNDUP FOR IOWA
NATIONAL WEATHER SERVICE DES MOINES IA
1100 PM CDT FRI APR 18 2014

NOTE: "FAIR" INDICATES FEW OR NO CLOUDS BELOW 12,000 FEET WITH NO
SIGNIFICANT WEATHER AND/OR OBSTRUCTIONS TO VISIBILITY.

* - THESE STATIONS ARE NOT NWS STATIONS...THUS NOT UNDER NWS
QUALITY CONTROL.  THEY ALSO DO NOT REPORT WEATHER SUCH
AS PRECIPITATION OR FOG.

IAZ001>003-012>014-020>022-031>034-043>046-190500-
   NORTHWEST IOWA

CITY           SKY/WX    TMP DP  RH WIND       PRES   REMARKS
CARROLL *      MOCLDY    50  36  57 SE12      30.12S
CHEROKEE *     CLOUDY    55  34  44 SE18G25   30.05F
DENISON *      CLOUDY    55  36  47 SE17G25   30.07F
LE MARS *      CLEAR     57  37  47 SE18      30.00F
ORANGE CITY *  CLEAR     57  34  41 SE16G22   30.01F
SHELDON *      MOCLDY    55  36  47 SE23G29   30.01F
SIOUX CITY     PTCLDY    57  39  51 SE15      30.02S
SPENCER        CLOUDY    52  33  48 SE18      30.07F
STORM LAKE *   CLEAR     52  34  50 SE15G22   30.08F
$$

IAZ055>058-069>071-079>083-090>094-190500-
   SOUTHWEST IOWA

CITY           SKY/WX    TMP DP  RH WIND       PRES   REMARKS
ATLANTIC *     CLOUDY    55  37  50 S9        30.12F
AUDUBON *      CLEAR     52  36  54 S8        30.13F
CLARINDA *     CLEAR     54  39  58 S8        30.16S
COUNCIL BLFS * CLOUDY    55  41  58 S14       30.09F
CRESTON *      CLEAR     52  41  66 SE9       30.16F
HARLAN  *      CLEAR     57  37  47 S13G20    30.14F
LAMONI         CLEAR     55  40  56 SE9       30.18S
RED OAK *      CLOUDY    57  39  51 SE13      30.13S
SHENANDOAH *   PTCLDY    55  41  58 SE12      30.14S
$$

IAZ047>049-059>061-072>074-084-190500-
   CENTRAL IOWA

CITY           SKY/WX    TMP DP  RH WIND       PRES   REMARKS
AMES           PTCLDY    50  32  50 SE10      30.17S
ANKENY *       CLEAR     52  36  54 SE8       30.18S
CHARITON *     PTCLDY    52  37  58 SE9       30.19S
DES MOINES     PTCLDY    55  34  45 SE10      30.18S
GRINNELL*      MOCLDY    46  30  53 E9        30.21S
KNOXVILLE *    CLEAR     54  32  43 SE8       30.19S
MARSHALLTOWN   PTCLDY    46  31  55 SE10      30.18F
NEWTON *       CLEAR     50  30  46 SE10      30.20S
PELLA *        PTCLDY    50  32  50 SE7       30.21S
PERRY *          N/A     52  34  50 SE12      30.15S
$$

IAZ004>006-015-016-023>025-035-036-190500-
   NORTH CENTRAL IOWA

CITY           SKY/WX    TMP DP  RH WIND       PRES   REMARKS
ALGONA *       CLEAR     52  30  43 SE20G26   30.12S
CLARION *      CLEAR     50  28  43 SE20      30.15S
ESTHERVILLE    CLOUDY    49  32  52 SE21      30.08
FORT DODGE *   CLOUDY    54  30  40 SE13G18   30.14S
MASON CITY     CLEAR     46  32  58 SE15      30.17F
FOREST CITY *  CLEAR     46  32  57 SE15G21   30.14F
IOWA FALLS *     N/A     48  30  49 SE12      30.18F
$$

IAZ007>011-017>019-026>030-037>042-050>054-066-190500-
   NORTHEAST IOWA

CITY           SKY/WX    TMP DP  RH WIND       PRES   REMARKS
CEDAR RAPIDS   MOCLDY    45  31  58 E8        30.23S
CHARLES CITY * CLEAR     48  32  53 SE13      30.20F
CLINTON *      CLEAR     46  34  61 E20       30.30S
DECORAH *      MOCLDY    46  28  49 SE8       30.23F
DUBUQUE        CLEAR     47  31  53 E13       30.27F
MONTICELLO *   CLEAR     48  34  57 E6        30.25R
OELWEIN *      CLEAR    N/A N/A N/A SE10      30.24S
WATERLOO       MOCLDY    47  32  56 SE10      30.21F
$$

IAZ064-065-067-068-078-190500-
   EAST CENTRAL IOWA

CITY           SKY/WX    TMP DP  RH WIND       PRES   REMARKS
DAVENPORT      CLEAR     49  32  52 E13       30.28F
IOWA CITY      MOCLDY    49  31  49 SE5       30.26R
MT. PLEASANT * CLEAR     46  30  53 E7        30.25R
MUSCATINE *    CLEAR     54  32  43 VRB5      30.26R
QUAD CITIES    CLEAR     50  32  50 E13       30.26F
$$

IAZ062-063-075>077-085>089-095>099-190500-
   SOUTHEAST IOWA

CITY           SKY/WX    TMP DP  RH WIND       PRES   REMARKS
BURLINGTON     CLEAR     53  31  42 E6        30.24S
FAIRFIELD *    CLEAR     48  28  46 SE8       30.24S
FORT MADISON * CLEAR     52  32  46 E6        30.25S
KEOKUK *       CLEAR     52  32  46 E8        30.23S
OSKALOOSA *      N/A     50  32  50 SE8       30.22S
CENTERVILLE *  CLEAR     48  36  61 SE8       30.22S
OTTUMWA        MOCLDY    50  30  46 SE12      30.21S
WASHINGTON *   CLEAR     45  30  57 E8        30.25R
$$

ABBREVIATIONS USED IN REMARKS
   TC - TEMPERATURES IN CELSIUS
  WCI - WIND CHILL INDEX
   HX - HEAT INDEX
  VSB - VISIBILITY
$$




USA.gov is the U.S. government's official web portal to all federal, state and local government web resources and services.